Tracking 17138 objects as of 7-July-2015
HD Live streaming from Space Station

BONUM 1

Track BONUM 1 now!
BONUM 1 is classified as:


NORAD ID: 25546
Int'l Code: 1998-068A
Perigee: 36,131.0 km
Apogee: 36,154.0 km
Inclination: 2.8 °
Period: 1,454.0 minutes
Semi major axis: 42513 km
RCS: 0.003 m2 (small)
Launch date: November 22, 1998
Source: Commonwealth of Independent States (former USSR) (CIS)

Television broadcasting; 8 Ku-band, Siberia or Europe, selected.
Your satellite tracking list
Your tracking list is empty





NASA's NSSDC Master Catalog

Two Line Element Set (TLE):
1 25546U 98068A   15186.88518489 -.00000119  00000-0  10000-3 0  9991
2 25546 002.8364 070.8947 0002705 329.8465 029.8688 00.99040430 60920

Source of the keplerian elements: AFSPC

N2YO: 426